This is the latest recevied weather packets stored in our database for station/object DM4XI-13. If no packets are shown the sender has not sent any weather packets the latest 10 day(s).
| Time | Temp. | Humidity | Pressure | Rain* | Wind** | Luminosity | Snow |
|---|---|---|---|---|---|---|---|
| 1778340338 | 21.67° C | 42% | 1013.9 hPa | 0 mm | 1.34 m/s, 155° | 134 W/m² | - |
| 1778340277 | 21.67° C | 43% | 1013.8 hPa | 0 mm | 0.89 m/s, 126° | 144 W/m² | - |
| 1778340217 | 22.22° C | 41% | 1013.9 hPa | 0 mm | 1.79 m/s, 175° | 296 W/m² | - |
| 1778340155 | 22.22° C | 41% | 1013.8 hPa | 0 mm | 0.89 m/s, 138° | 364 W/m² | - |
| 1778340094 | 22.22° C | 42% | 1013.7 hPa | 0 mm | 0.89 m/s, 156° | 361 W/m² | - |
| 1778340033 | 22.22° C | 41% | 1013.9 hPa | 0 mm | 0.45 m/s, 202° | 356 W/m² | - |
| 1778339973 | 22.22° C | 40% | 1013.9 hPa | 0 mm | 0.89 m/s, 131° | 321 W/m² | - |
| 1778339911 | 22.22° C | 40% | 1013.8 hPa | 0 mm | 0.89 m/s, 84° | 349 W/m² | - |
| 1778339851 | 22.22° C | 40% | 1014 hPa | 0 mm | 0.45 m/s, 334° | 348 W/m² | - |
| 1778339789 | 22.22° C | 41% | 1013.9 hPa | 0 mm | 0.45 m/s, 322° | 350 W/m² | - |
| 1778339728 | 22.22° C | 42% | 1014 hPa | 0 mm | 0.45 m/s, 178° | 353 W/m² | - |
| 1778339667 | 21.67° C | 40% | 1013.9 hPa | 0 mm | 1.34 m/s, 252° | 356 W/m² | - |
| 1778339605 | 21.67° C | 42% | 1013.9 hPa | 0 mm | 0.45 m/s, 203° | 356 W/m² | - |
| 1778339544 | 21.67° C | 40% | 1013.9 hPa | 0 mm | 0.89 m/s, 5° | 353 W/m² | - |
| 1778339483 | 21.67° C | 39% | 1014.1 hPa | 0 mm | 1.34 m/s, 3° | 349 W/m² | - |
| 1778339422 | 21.67° C | 41% | 1014 hPa | 0 mm | 0.45 m/s, 348° | 347 W/m² | - |
| 1778339361 | 21.11° C | 41% | 1014 hPa | 0 mm | 0.45 m/s, 54° | 342 W/m² | - |
| 1778339300 | 21.11° C | 40% | 1013.9 hPa | 0 mm | 0.45 m/s, 214° | 344 W/m² | - |
| 1778339239 | 21.11° C | 42% | 1014.2 hPa | 0 mm | 0.45 m/s, 209° | 358 W/m² | - |
| 1778339179 | 21.11° C | 41% | 1013.9 hPa | 0 mm | 0.45 m/s, 238° | 372 W/m² | - |
| 1778339117 | 21.11° C | 42% | 1013.9 hPa | 0 mm | 0.45 m/s, 96° | 332 W/m² | - |
| 1778339056 | 21.67° C | 42% | 1013.9 hPa | 0 mm | 0.45 m/s, 290° | 146 W/m² | - |
| 1778338995 | 21.67° C | 42% | 1014.1 hPa | 0 mm | 0.45 m/s, 3° | 146 W/m² | - |
| 1778338934 | 21.67° C | 42% | 1014.1 hPa | 0 mm | 0.45 m/s, 235° | 140 W/m² | - |
| 1778338873 | 21.67° C | 41% | 1014.1 hPa | 0 mm | 0.89 m/s, 288° | 191 W/m² | - |
* Rain latest hour (hover to see other rain measurements)
** Current wind speed in m/s (hover to see current wind gust speed)